• în Republica Moldova
  • Lista ţărilor
  • Pe 7 zile
  • Temperatura apei
  • Hartă satelitară
  • Meteo pe hartă
  • Widget-uri
  • user-avatar
    Intrare

    Meteo pe oră la Ondjiwa

    Astăzi, 24 Ianuarie, Miercuri

    Timp Temperatura Precipitaţii Vânt Presiune Umiditate
    00:00 +26°C° 0,6 mm 2 m/s 665 mmHg 61%
    01:00 +25°C° 0,6 mm 3 m/s 665 mmHg 67%
    02:00 +25°C° 0,1 mm 3 m/s 665 mmHg 67%
    03:00 +25°C° 0,1 mm 3 m/s 665 mmHg 67%
    04:00 +25°C° 0,1 mm 3 m/s 665 mmHg 67%
    05:00 +25°C° 0,1 mm 3 m/s 665 mmHg 64%
    06:00 +25°C° 0,1 mm 3 m/s 665 mmHg 61%
    07:00 +25°C° 0,1 mm 3 m/s 666 mmHg 58%
    08:00 +27°C° 0 mm 3 m/s 666 mmHg 49%
    09:00 +29°C° 0 mm 3 m/s 667 mmHg 41%
    10:00 +31°C° 0 mm 3 m/s 667 mmHg 33%
    11:00 +33°C° 0 mm 3 m/s 667 mmHg 31%
    12:00 +35°C° 0 mm 2 m/s 667 mmHg 29%
    13:00 +36°C° 0 mm 2 m/s 667 mmHg 27%
    14:00 +36°C° 0 mm 2 m/s 666 mmHg 27%
    15:00 +36°C° 0 mm 2 m/s 665 mmHg 27%
    16:00 +35°C° 0 mm 2 m/s 665 mmHg 27%
    17:00 +33°C° 0 mm 1 m/s 664 mmHg 29%
    18:00 +32°C° 0 mm 1 m/s 664 mmHg 32%
    19:00 +31°C° 0 mm 1 m/s 664 mmHg 34%
    20:00 +30°C° 0,2 mm 2 m/s 665 mmHg 39%
    21:00 +29°C° 0,2 mm 3 m/s 665 mmHg 44%
    22:00 +28°C° 0,2 mm 3 m/s 665 mmHg 50%
    23:00 +27°C° 0 mm 4 m/s 665 mmHg 52%

    Mâine, 25 Ianuarie, Joi

    Timp Temperatura Precipitaţii Vânt Presiune Umiditate
    00:00 +26°C° 0 mm 4 m/s 665 mmHg 53%
    01:00 +26°C° 0 mm 5 m/s 665 mmHg 55%
    02:00 +25°C° 0 mm 4 m/s 665 mmHg 55%
    03:00 +23°C° 0 mm 4 m/s 665 mmHg 55%
    04:00 +24°C° 0 mm 3 m/s 665 mmHg 55%
    05:00 +24°C° 0 mm 3 m/s 665 mmHg 54%
    06:00 +24°C° 0 mm 3 m/s 666 mmHg 54%
    07:00 +24°C° 0 mm 3 m/s 666 mmHg 53%
    08:00 +26°C° 0 mm 3 m/s 667 mmHg 46%
    09:00 +27°C° 0 mm 3 m/s 667 mmHg 39%
    10:00 +29°C° 0 mm 2 m/s 668 mmHg 32%
    11:00 +31°C° 0 mm 2 m/s 667 mmHg 30%
    12:00 +32°C° 0 mm 2 m/s 667 mmHg 28%
    13:00 +34°C° 0 mm 1 m/s 667 mmHg 26%
    14:00 +34°C° 0 mm 1 m/s 666 mmHg 26%
    15:00 +35°C° 0 mm 2 m/s 666 mmHg 25%
    16:00 +35°C° 0 mm 2 m/s 665 mmHg 25%
    17:00 +34°C° 0 mm 2 m/s 665 mmHg 28%
    18:00 +31°C° 0 mm 2 m/s 665 mmHg 30%
    19:00 +30°C° 0 mm 2 m/s 664 mmHg 33%
    20:00 +29°C° 0 mm 2 m/s 665 mmHg 35%
    21:00 +28°C° 0 mm 2 m/s 665 mmHg 37%
    22:00 +28°C° 0 mm 1 m/s 666 mmHg 39%
    23:00 +27°C° 0 mm 2 m/s 666 mmHg 42%

    Poimâine, 26 Ianuarie, Vineri

    Timp Temperatura Precipitaţii Vânt Presiune Umiditate
    00:00 +26°C° 0 mm 2 m/s 665 mmHg 46%
    01:00 +26°C° 0 mm 3 m/s 665 mmHg 49%
    02:00 +25°C° 0 mm 3 m/s 665 mmHg 50%
    03:00 +24°C° 0 mm 2 m/s 665 mmHg 50%
    04:00 +24°C° 0 mm 2 m/s 665 mmHg 50%
    05:00 +24°C° 0 mm 2 m/s 665 mmHg 48%
    06:00 +24°C° 0 mm 2 m/s 666 mmHg 47%
    07:00 +25°C° 0 mm 3 m/s 666 mmHg 45%
    08:00 +26°C° 0 mm 2 m/s 667 mmHg 39%
    09:00 +28°C° 0 mm 2 m/s 667 mmHg 34%
    10:00 +29°C° 0 mm 2 m/s 668 mmHg 28%
    11:00 +31°C° 0 mm 2 m/s 667 mmHg 26%
    12:00 +34°C° 0 mm 2 m/s 667 mmHg 24%
    13:00 +35°C° 0 mm 2 m/s 666 mmHg 21%
    14:00 +35°C° 0 mm 3 m/s 666 mmHg 21%
    15:00 +36°C° 0 mm 3 m/s 665 mmHg 21%
    16:00 +36°C° 0 mm 3 m/s 664 mmHg 20%
    17:00 +34°C° 0 mm 2 m/s 664 mmHg 23%
    18:00 +32°C° 0 mm 2 m/s 664 mmHg 25%
    19:00 +30°C° 0 mm 1 m/s 664 mmHg 27%
    20:00 +30°C° 0 mm 1 m/s 665 mmHg 30%
    21:00 +29°C° 0 mm 2 m/s 665 mmHg 33%
    22:00 +28°C° 0 mm 2 m/s 665 mmHg 36%
    23:00 +28°C° 0 mm 2 m/s 665 mmHg 40%

    27 Ianuarie, Sâmbătă

    Timp Temperatura Precipitaţii Vânt Presiune Umiditate
    00:00 +27°C° 0 mm 2 m/s 665 mmHg 44%
    01:00 +26°C° 0 mm 2 m/s 665 mmHg 48%
    02:00 +26°C° 0 mm 2 m/s 665 mmHg 47%
    03:00 +26°C° 0 mm 2 m/s 665 mmHg 47%
    04:00 +26°C° 0 mm 2 m/s 665 mmHg 47%
    05:00 +26°C° 0 mm 2 m/s 665 mmHg 48%
    06:00 +26°C° 0 mm 2 m/s 666 mmHg 48%
    07:00 +26°C° 0 mm 2 m/s 666 mmHg 49%
    08:00 +27°C° 0 mm 2 m/s 667 mmHg 44%
    09:00 +29°C° 0 mm 2 m/s 667 mmHg 39%
    10:00 +31°C° 0 mm 1 m/s 667 mmHg 34%
    11:00 +32°C° 0 mm 1 m/s 667 mmHg 32%
    12:00 +34°C° 0 mm 1 m/s 667 mmHg 30%
    13:00 +35°C° 0 mm 1 m/s 666 mmHg 28%
    14:00 +35°C° 0 mm 1 m/s 665 mmHg 28%
    15:00 +34°C° 0 mm 1 m/s 665 mmHg 29%
    16:00 +34°C° 0 mm 1 m/s 664 mmHg 29%
    17:00 +32°C° 0,3 mm 1 m/s 664 mmHg 32%
    18:00 +31°C° 0,3 mm 1 m/s 664 mmHg 36%
    19:00 +30°C° 0,3 mm 2 m/s 664 mmHg 39%
    20:00 +29°C° 0,7 mm 1 m/s 665 mmHg 45%
    21:00 +28°C° 0,7 mm 1 m/s 665 mmHg 51%
    22:00 +26°C° 0,7 mm 1 m/s 665 mmHg 57%
    23:00 +26°C° 0,3 mm 1 m/s 665 mmHg 60%

    28 Ianuarie, Duminică

    Timp Temperatura Precipitaţii Vânt Presiune Umiditate
    00:00 +25°C° 0,3 mm 2 m/s 665 mmHg 62%
    01:00 +25°C° 0,3 mm 2 m/s 664 mmHg 65%
    02:00 +24°C° 0,4 mm 2 m/s 664 mmHg 65%
    03:00 +24°C° 0,4 mm 2 m/s 664 mmHg 64%
    04:00 +24°C° 0,4 mm 1 m/s 664 mmHg 64%
    05:00 +24°C° 0 mm 1 m/s 665 mmHg 63%
    06:00 +24°C° 0 mm 1 m/s 665 mmHg 61%
    07:00 +24°C° 0 mm 1 m/s 666 mmHg 59%
    08:00 +26°C° 0 mm 1 m/s 666 mmHg 53%
    09:00 +28°C° 0 mm 2 m/s 666 mmHg 48%
    10:00 +30°C° 0 mm 2 m/s 667 mmHg 42%
    11:00 +31°C° 0 mm 2 m/s 667 mmHg 38%
    12:00 +32°C° 0 mm 2 m/s 666 mmHg 35%
    13:00 +35°C° 0 mm 2 m/s 666 mmHg 32%
    14:00 +33°C° 0 mm 1 m/s 665 mmHg 32%
    15:00 +33°C° 0 mm 1 m/s 665 mmHg 33%
    16:00 +33°C° 0 mm 1 m/s 664 mmHg 33%
    17:00 +32°C° 0 mm 1 m/s 664 mmHg 36%
    18:00 +30°C° 0 mm 1 m/s 664 mmHg 39%
    19:00 +29°C° 0 mm 1 m/s 664 mmHg 43%
    20:00 +28°C° 0,1 mm 1 m/s 665 mmHg 45%
    21:00 +28°C° 0,1 mm 1 m/s 665 mmHg 48%
    22:00 +27°C° 0,1 mm 1 m/s 666 mmHg 51%
    23:00 +26°C° 0 mm 1 m/s 665 mmHg 54%

    29 Ianuarie, Luni

    Timp Temperatura Precipitaţii Vânt Presiune Umiditate
    00:00 +26°C° 0 mm 2 m/s 665 mmHg 56%
    01:00 +25°C° 0 mm 2 m/s 665 mmHg 59%
    02:00 +24°C° 0 mm 2 m/s 664 mmHg 61%
    03:00 +24°C° 0 mm 2 m/s 664 mmHg 64%
    04:00 +23°C° 0 mm 2 m/s 664 mmHg 66%
    05:00 +23°C° 0 mm 2 m/s 665 mmHg 64%
    06:00 +24°C° 0 mm 2 m/s 665 mmHg 63%
    07:00 +24°C° 0 mm 2 m/s 666 mmHg 61%
    08:00 +27°C° 0 mm 2 m/s 666 mmHg 53%
    09:00 +29°C° 0 mm 2 m/s 667 mmHg 45%
    10:00 +31°C° 0 mm 1 m/s 667 mmHg 37%
    11:00 +34°C° 0 mm 1 m/s 667 mmHg 33%
    12:00 +34°C° 0 mm 0 m/s 667 mmHg 30%
    13:00 +36°C° 0 mm 0 m/s 667 mmHg 26%
    14:00 +34°C° 0 mm 0 m/s 666 mmHg 28%
    15:00 +33°C° 0 mm 0 m/s 665 mmHg 29%
    16:00 +32°C° 0 mm 0 m/s 664 mmHg 31%
    17:00 +33°C° 0 mm 1 m/s 664 mmHg 33%
    18:00 +32°C° 0 mm 1 m/s 665 mmHg 35%
    19:00 +31°C° 0 mm 1 m/s 665 mmHg 37%
    20:00 +30°C° 0 mm 1 m/s 665 mmHg 39%
    21:00 +30°C° 0 mm 1 m/s 665 mmHg 41%
    22:00 +29°C° 0 mm 1 m/s 666 mmHg 43%
    23:00 +28°C° 0 mm 2 m/s 665 mmHg 45%
    Arată mai mult